Location: Quebec
(46.8000°N, 71.2500°W)
Time: 16:50:19
(UTC-04:00)

ISS - Pass Details

Date: 09 October 2017
Orbit: 400 x 408 km, 51.6° (Epoch: 24 October)

Event Time Altitude Azimuth Distance (km) Brightness Sun altitude
Rises 20:34:01 0° 294° (WNW) 2,330 1.4 -25.4°
Reaches altitude 10° 20:36:08 10° 289° (WNW) 1,469 0.0 -25.8°
Enters shadow 20:37:47 26° 277° (W) 845 -1.6 -26.0°
